Flood From: 18-02-2018 10:00 Until: 19-02-2018 06:00 warning for: Flood Level: Yellow info button

Although rather usual in this region, locally or potentially dangerous phenomena are expected. (such as local winds, summer thunderstorms, rising streams or high waves) Be aware and pay attention to the latest weather updates, especially if you carry out activities exposed to weather or close to a stream or shoreline. 


Meteo18 Weather Cam more information Meteo18 Weather Cam


Thunder radar more information blitzortung!


Rain radar more information rain snow radar


Visit our other weather sites:

Template documentation
and downloads

And another site



Weather Underground History page Text

Daily Summary for February 27, 2016 Units:  Metric    English   Both
« Previous Day
Next Day »
Daily Weekly Monthly Yearly Custom
  High: Low: Average:
Temperature: -17.8 °C -18.9 °C -15.7 °C
Dew Point: -17.8 °C -19.6 °C -17.3 °C
Humidity: Humidity % 68 % 81 %
Wind Speed: 0 km/h 0 km/h 4.7 km/h
Wind Gust: 0 km/h - -
Wind:- - ENE
Pressure: 0 hPa 33788.9 hPa -
Precipitation: 0 mm    
Historical Graphs
 
 
Tabular Data for February 27, 2016
Time Temperature Dew Point Pressure Wind Wind Speed Wind Gust Humidity Rainfall Rate (Hourly)
-17.8 °C -17.8 °C 0 hPa Calm     Humidity % 0 mm
00:02 -18.3 °C -19.5 °C 33890.5 hPa Calm   2.6 km/h 85 % 0 mm
00:12 -18.3 °C -19.5 °C 33880.3 hPa Calm   2.6 km/h 85 % 0 mm
00:17 -18.3 °C -19.5 °C 33880.3 hPa Calm   2.6 km/h 85 % 0 mm
00:22 -18.3 °C -19.4 °C 33880.3 hPa Calm   2.6 km/h 86 % 0 mm
00:27 -18.3 °C -19.4 °C 33880.3 hPa Calm   2.6 km/h 86 % 0 mm
00:32 -18.3 °C -19.4 °C 33880.3 hPa NE 2.6 km/h 2.6 km/h 86 % 0 mm
00:37 -18.2 °C -19.4 °C 33880.3 hPa Calm   2.6 km/h 85 % 0 mm
00:42 -18.1 °C -19.3 °C 33880.3 hPa NNE 2.6 km/h 10.3 km/h 85 % 0 mm
00:57 -18 °C -19.3 °C 33866.8 hPa NNE 2.6 km/h 10.3 km/h 84 % 0 mm
01:02 -17.9 °C -19.3 °C 33866.8 hPa NNE 2.6 km/h 7.7 km/h 83 % 0 mm
01:07 -17.9 °C -19.3 °C 33866.8 hPa Calm   10.3 km/h 83 % 0 mm
01:12 -18 °C -19.3 °C 33856.6 hPa Calm   10.3 km/h 84 % 0 mm
01:17 -18 °C -19.3 °C 33856.6 hPa Calm   7.7 km/h 84 % 0 mm
01:22 -18 °C -19.4 °C 33856.6 hPa North 2.6 km/h 7.7 km/h 83 % 0 mm
01:27 -18 °C -19.4 °C 33856.6 hPa Calm   7.7 km/h 83 % 0 mm
01:32 -18.1 °C -19.4 °C 33856.6 hPa Calm   7.7 km/h 84 % 0 mm
01:37 -18.1 °C -19.4 °C 33856.6 hPa Calm   7.7 km/h 84 % 0 mm
01:42 -18.1 °C -19.4 °C 33843.1 hPa NNE 2.6 km/h 5.1 km/h 84 % 0 mm
01:47 -18.1 °C -19.4 °C 33843.1 hPa Calm   7.7 km/h 84 % 0 mm
01:52 -18.1 °C -19.3 °C 33843.1 hPa Calm   12.9 km/h 85 % 0 mm
01:57 -18.1 °C -19.3 °C 33843.1 hPa Calm   12.9 km/h 85 % 0 mm
02:02 -18.2 °C -19.4 °C 33843.1 hPa Calm   7.7 km/h 85 % 0 mm
02:07 -18.1 °C -19.3 °C 33843.1 hPa SE 2.6 km/h 7.7 km/h 86 % 0 mm
02:12 -18.1 °C -19.3 °C 33843.1 hPa Calm   7.7 km/h 85 % 0 mm
02:17 -18.2 °C -19.3 °C 33843.1 hPa Calm   10.3 km/h 86 % 0 mm
02:22 -18.2 °C -19.3 °C 33843.1 hPa ENE 2.6 km/h 10.3 km/h 87 % 0 mm
02:27 -18.3 °C -19.3 °C 33843.1 hPa Calm   10.3 km/h 88 % 0 mm
02:37 -18.5 °C -19.4 °C 33843.1 hPa NE 2.6 km/h 10.3 km/h 89 % 0 mm
02:42 -18.5 °C -19.4 °C 33843.1 hPa SE 2.6 km/h 10.3 km/h 89 % 0 mm
02:47 -18.6 °C -19.4 °C 33843.1 hPa Calm   7.7 km/h 89 % 0 mm
02:52 -18.7 °C -19.6 °C 33832.9 hPa Calm   7.7 km/h 89 % 0 mm
02:57 -18.7 °C -19.5 °C 33832.9 hPa Calm   5.1 km/h 90 % 0 mm
03:02 -18.8 °C -19.6 °C 33832.9 hPa Calm   5.1 km/h 90 % 0 mm
03:12 -18.8 °C -19.6 °C 33822.8 hPa Calm   5.1 km/h 91 % 0 mm
03:17 -18.8 °C -19.5 °C 33809.2 hPa Calm   2.6 km/h 91 % 0 mm
03:22 -18.8 °C -19.6 °C 33809.2 hPa Calm   2.6 km/h 91 % 0 mm
03:27 -18.8 °C -19.4 °C 33809.2 hPa Calm   2.6 km/h 92 % 0 mm
03:32 -18.8 °C -19.4 °C 33809.2 hPa Calm   2.6 km/h 92 % 0 mm
03:37 -18.8 °C -19.4 °C 33809.2 hPa Calm   2.6 km/h 92 % 0 mm
03:42 -18.8 °C -19.4 °C 33809.2 hPa Calm   2.6 km/h 92 % 0 mm
03:47 -18.8 °C -19.4 °C 33809.2 hPa Calm   2.6 km/h 92 % 0 mm
03:52 -18.8 °C -19.4 °C 33799.1 hPa Calm   2.6 km/h 92 % 0 mm
03:57 -18.8 °C -19.4 °C 33799.1 hPa ENE 2.6 km/h   92 % 0 mm
04:02 -18.8 °C -19.4 °C 33799.1 hPa Calm   2.6 km/h 92 % 0 mm
04:07 -18.8 °C -19.4 °C 33799.1 hPa Calm   2.6 km/h 92 % 0 mm
04:12 -18.7 °C -19.3 °C 33809.2 hPa SE 2.6 km/h 2.6 km/h 92 % 0 mm
04:22 -18.7 °C -19.4 °C 33799.1 hPa Calm   7.7 km/h 91 % 0 mm
04:27 -18.8 °C -19.4 °C 33799.1 hPa Calm   7.7 km/h 92 % 0 mm
04:32 -18.8 °C -19.4 °C 33799.1 hPa Calm   7.7 km/h 92 % 0 mm
04:37 -18.8 °C -19.4 °C 33799.1 hPa Calm   2.6 km/h 92 % 0 mm
04:42 -18.8 °C -19.4 °C 33799.1 hPa Calm   2.6 km/h 92 % 0 mm
04:47 -18.8 °C -19.3 °C 33799.1 hPa Calm   2.6 km/h 93 % 0 mm
05:02 -18.8 °C -19.3 °C 33799.1 hPa Calm   5.1 km/h 93 % 0 mm
05:12 -18.8 °C -19.4 °C 33799.1 hPa Calm   5.1 km/h 93 % 0 mm
05:17 -18.9 °C -19.4 °C 33799.1 hPa Calm   5.1 km/h 93 % 0 mm
05:27 -18.9 °C -19.4 °C 33799.1 hPa Calm   2.6 km/h 93 % 0 mm
05:32 -18.9 °C -19.5 °C 33799.1 hPa Calm   2.6 km/h 93 % 0 mm
05:37 -18.9 °C -19.3 °C 33799.1 hPa Calm   2.6 km/h 94 % 0 mm
05:42 -18.8 °C -19.3 °C 33799.1 hPa Calm     94 % 0 mm
05:47 -18.8 °C -19.4 °C 33788.9 hPa Calm     93 % 0 mm
05:52 -18.9 °C -19.3 °C 33788.9 hPa Calm   2.6 km/h 94 % 0 mm
05:57 -18.8 °C -19.3 °C 33788.9 hPa Calm   2.6 km/h 94 % 0 mm
06:02 -18.8 °C -19.2 °C 33788.9 hPa Calm   2.6 km/h 94 % 0 mm
06:12 -18.8 °C -19.4 °C 33788.9 hPa Calm   2.6 km/h 93 % 0 mm
06:17 -18.8 °C -19.3 °C 33788.9 hPa Calm   2.6 km/h 94 % 0 mm
06:32 -18.8 °C -19.3 °C 33788.9 hPa Calm   2.6 km/h 94 % 0 mm
06:37 -18.8 °C -19.3 °C 33799.1 hPa Calm   5.1 km/h 94 % 0 mm
06:42 -18.9 °C -19.3 °C 33799.1 hPa Calm   5.1 km/h 94 % 0 mm
06:47 -18.9 °C -19.3 °C 33799.1 hPa Calm   5.1 km/h 94 % 0 mm
06:52 -18.8 °C -19.3 °C 33799.1 hPa Calm   2.6 km/h 94 % 0 mm
06:57 -18.8 °C -19.2 °C 33799.1 hPa Calm   2.6 km/h 94 % 0 mm
07:02 -18.8 °C -19.3 °C 33799.1 hPa Calm   2.6 km/h 94 % 0 mm
07:12 -18.7 °C -19.2 °C 33799.1 hPa Calm   2.6 km/h 94 % 0 mm
07:22 -18.7 °C -19.1 °C 33788.9 hPa Calm   7.7 km/h 94 % 0 mm
07:32 -18.7 °C -19.2 °C 33799.1 hPa SE 2.6 km/h 5.1 km/h 94 % 0 mm
07:37 -18.7 °C -19.1 °C 33799.1 hPa Calm   5.1 km/h 94 % 0 mm
07:42 -18.7 °C -19.1 °C 33799.1 hPa Calm   5.1 km/h 94 % 0 mm
07:47 -18.7 °C -19.1 °C 33799.1 hPa Calm   5.1 km/h 94 % 0 mm
07:52 -18.7 °C -19.1 °C 33799.1 hPa Calm   5.1 km/h 94 % 0 mm
08:02 -18.6 °C -19 °C 33799.1 hPa NE 2.6 km/h 2.6 km/h 94 % 0 mm
08:12 -18.4 °C -18.9 °C 33799.1 hPa Calm   5.1 km/h 94 % 0 mm
08:17 -18.3 °C -18.8 °C 33799.1 hPa Calm   7.7 km/h 94 % 0 mm
08:22 -18.3 °C -18.7 °C 33799.1 hPa Calm   7.7 km/h 94 % 0 mm
08:32 -18.1 °C -18.6 °C 33809.2 hPa NNE 2.6 km/h 7.7 km/h 94 % 0 mm
08:42 -17.9 °C -18.4 °C 33809.2 hPa NE 2.6 km/h 5.1 km/h 93 % 0 mm
08:47 -17.8 °C -18.4 °C 33809.2 hPa Calm   5.1 km/h 92 % 0 mm
08:52 -17.7 °C -18.3 °C 33809.2 hPa Calm   5.1 km/h 92 % 0 mm
09:02 -17.5 °C -18.2 °C 33809.2 hPa Calm   7.7 km/h 91 % 0 mm
09:07 -17.4 °C -18.2 °C 33809.2 hPa Calm   10.3 km/h 90 % 0 mm
09:17 -17.2 °C -18.1 °C 33822.8 hPa NE 2.6 km/h 10.3 km/h 90 % 0 mm
09:22 -17.1 °C -18 °C 33822.8 hPa Calm   10.3 km/h 89 % 0 mm
09:32 -16.9 °C -17.8 °C 33822.8 hPa NE 5.1 km/h 7.7 km/h 89 % 0 mm
09:37 -16.7 °C -17.8 °C 33822.8 hPa ENE 2.6 km/h 7.7 km/h 87 % 0 mm
09:42 -16.6 °C -17.6 °C 33822.8 hPa NE 5.1 km/h 7.7 km/h 88 % 0 mm
09:52 -16.4 °C -17.5 °C 33822.8 hPa Calm   10.3 km/h 87 % 0 mm
09:57 -16.3 °C -17.4 °C 33822.8 hPa East 2.6 km/h 10.3 km/h 87 % 0 mm
10:02 -16.2 °C -17.4 °C 33822.8 hPa ENE 2.6 km/h 10.3 km/h 86 % 0 mm
10:07 -16.1 °C -17.3 °C 33822.8 hPa Calm   12.9 km/h 86 % 0 mm
10:12 -16 °C -17.3 °C 33822.8 hPa East 2.6 km/h 12.9 km/h 85 % 0 mm
10:17 -15.9 °C -17.2 °C 33822.8 hPa Calm   15.6 km/h 85 % 0 mm
10:22 -15.7 °C -17.1 °C 33822.8 hPa ENE 5.1 km/h 15.6 km/h 84 % 0 mm
10:27 -15.6 °C -17.1 °C 33822.8 hPa NNE 2.6 km/h 15.6 km/h 83 % 0 mm
10:32 -15.4 °C -17 °C 33822.8 hPa NE 5.1 km/h 12.9 km/h 82 % 0 mm
10:37 -15.4 °C -16.9 °C 33822.8 hPa Calm   12.9 km/h 82 % 0 mm
10:42 -15.4 °C -16.9 °C 33822.8 hPa NNW 10.3 km/h 18.2 km/h 82 % 0 mm
10:47 -15.3 °C -17 °C 33822.8 hPa NE 2.6 km/h 18.2 km/h 81 % 0 mm
10:52 -15.2 °C -16.9 °C 33822.8 hPa North 2.6 km/h 18.2 km/h 81 % 0 mm
10:57 -15.2 °C -16.8 °C 33832.9 hPa NNE 2.6 km/h 12.9 km/h 81 % 0 mm
11:02 -14.9 °C -16.6 °C 33832.9 hPa Calm   12.9 km/h 81 % 0 mm
11:12 -14.8 °C -16.4 °C 33832.9 hPa Calm   12.9 km/h 81 % 0 mm
11:17 -14.7 °C -16.6 °C 33832.9 hPa Calm   10.3 km/h 79 % 0 mm
11:22 -14.7 °C -16.4 °C 33832.9 hPa NE 5.1 km/h 10.3 km/h 80 % 0 mm
11:27 -14.6 °C -16.3 °C 33832.9 hPa ENE 7.7 km/h 18.2 km/h 81 % 0 mm
11:37 -14.5 °C -16.3 °C 33832.9 hPa NNE 2.6 km/h 18.2 km/h 80 % 0 mm
11:42 -14.3 °C -16.2 °C 33843.1 hPa East 5.1 km/h 20.8 km/h 79 % 0 mm
11:47 -14.3 °C -16.2 °C 33832.9 hPa Calm   20.8 km/h 79 % 0 mm
11:52 -14.2 °C -16.1 °C 33832.9 hPa NE 2.6 km/h 20.8 km/h 79 % 0 mm
11:57 -14.1 °C -15.9 °C 33832.9 hPa Calm   15.6 km/h 80 % 0 mm
12:02 -14.1 °C -16.1 °C 33832.9 hPa NE 2.6 km/h 15.6 km/h 78 % 0 mm
12:07 -14 °C -15.9 °C 33822.8 hPa Calm   15.6 km/h 79 % 0 mm
12:12 -13.9 °C -15.8 °C 33822.8 hPa South 2.6 km/h 15.6 km/h 79 % 0 mm
12:17 -13.8 °C -15.8 °C 33822.8 hPa Calm   12.9 km/h 78 % 0 mm
12:22 -13.7 °C -15.9 °C 33832.9 hPa ENE 7.7 km/h 12.9 km/h 76 % 0 mm
12:37 -13.3 °C -15.6 °C 33822.8 hPa NE 2.6 km/h 12.9 km/h 76 % 0 mm
12:42 -13.2 °C -15.4 °C 33822.8 hPa ENE 2.6 km/h 20.8 km/h 76 % 0 mm
12:47 -13.2 °C -15.4 °C 33822.8 hPa NE 7.7 km/h 20.8 km/h 76 % 0 mm
12:57 -13.2 °C -15.6 °C 33822.8 hPa ENE 7.7 km/h 18.2 km/h 75 % 0 mm
13:02 -13.2 °C -15.6 °C 33822.8 hPa NNE 7.7 km/h 23.3 km/h 74 % 0 mm
13:07 -13.1 °C -15.6 °C 33822.8 hPa NNE 5.1 km/h 23.3 km/h 74 % 0 mm
13:12 -13.1 °C -15.5 °C 33822.8 hPa NNE 5.1 km/h 23.3 km/h 74 % 0 mm
13:17 -13 °C -15.4 °C 33822.8 hPa NNE 7.7 km/h 20.8 km/h 74 % 0 mm
13:22 -13 °C -15.6 °C 33822.8 hPa NNE 18.2 km/h 25.9 km/h 73 % 0 mm
13:27 -12.9 °C -15.5 °C 33822.8 hPa ENE 2.6 km/h 25.9 km/h 73 % 0 mm
13:32 -12.9 °C -15.4 °C 33822.8 hPa ENE 2.6 km/h 25.9 km/h 73 % 0 mm
13:37 -12.8 °C -15.3 °C 33822.8 hPa NNE 25.9 km/h 25.9 km/h 73 % 0 mm
13:42 -12.7 °C -15.4 °C 33822.8 hPa East 5.1 km/h 25.9 km/h 72 % 0 mm
13:47 -12.7 °C -15.3 °C 33809.2 hPa ENE 10.3 km/h 25.9 km/h 73 % 0 mm
13:52 -12.7 °C -15.1 °C 33809.2 hPa Calm   25.9 km/h 74 % 0 mm
13:57 -12.6 °C -15.3 °C 33809.2 hPa SE 5.1 km/h 20.8 km/h 72 % 0 mm
14:02 -12.6 °C -15.4 °C 33809.2 hPa NNE 18.2 km/h 20.8 km/h 71 % 0 mm
14:07 -12.6 °C -15.5 °C 33809.2 hPa NNE 7.7 km/h 20.8 km/h 70 % 0 mm
14:12 -12.6 °C -15.5 °C 33809.2 hPa SE 5.1 km/h 25.9 km/h 70 % 0 mm
14:17 -12.6 °C -15.4 °C 33809.2 hPa NNE 15.6 km/h 25.9 km/h 71 % 0 mm
14:22 -12.6 °C -15.4 °C 33809.2 hPa NNE 12.9 km/h 25.9 km/h 71 % 0 mm
14:27 -12.6 °C -15.3 °C 33809.2 hPa ENE 2.6 km/h 20.8 km/h 71 % 0 mm
14:32 -12.6 °C -15.6 °C 33809.2 hPa NNE 5.1 km/h 23.3 km/h 69 % 0 mm
14:37 -12.4 °C -15.2 °C 33809.2 hPa ENE 18.2 km/h 23.3 km/h 71 % 0 mm
14:42 -12.4 °C -15.2 °C 33799.1 hPa North 10.3 km/h 31.1 km/h 71 % 0 mm
14:47 -12.4 °C -15.2 °C 33799.1 hPa NE 2.6 km/h 31.1 km/h 71 % 0 mm
14:52 -12.4 °C -15.5 °C 33809.2 hPa NNE 7.7 km/h 28.5 km/h 68 % 0 mm
14:57 -12.4 °C -15.2 °C 33809.2 hPa NE 2.6 km/h 28.5 km/h 71 % 0 mm
15:02 -12.4 °C -15.2 °C 33809.2 hPa East 5.1 km/h 23.3 km/h 71 % 0 mm
15:12 -12.4 °C -15.4 °C 33809.2 hPa North 12.9 km/h 20.8 km/h 69 % 0 mm
15:17 -12.4 °C -15.2 °C 33809.2 hPa NNE 7.7 km/h 20.8 km/h 71 % 0 mm
15:22 -12.4 °C -15.3 °C 33809.2 hPa ENE 7.7 km/h 20.8 km/h 70 % 0 mm
15:27 -12.3 °C -15.3 °C 33809.2 hPa NNE 7.7 km/h 20.8 km/h 69 % 0 mm
15:32 -12.2 °C -15.1 °C 33809.2 hPa North 10.3 km/h 20.8 km/h 70 % 0 mm
15:37 -12.2 °C -15.2 °C 33822.8 hPa NE 12.9 km/h 20.8 km/h 69 % 0 mm
15:42 -12.2 °C -15.1 °C 33809.2 hPa ENE 7.7 km/h 18.2 km/h 70 % 0 mm
15:47 -12.2 °C -15.1 °C 33809.2 hPa NE 7.7 km/h 18.2 km/h 70 % 0 mm
15:52 -12.3 °C -15.2 °C 33809.2 hPa NE 5.1 km/h 20.8 km/h 70 % 0 mm
15:57 -12.3 °C -15.3 °C 33809.2 hPa ENE 15.6 km/h 28.5 km/h 69 % 0 mm
16:02 -12.4 °C -15.3 °C 33809.2 hPa NE 7.7 km/h 28.5 km/h 70 % 0 mm
16:12 -12.4 °C -15.4 °C 33809.2 hPa West 5.1 km/h 28.5 km/h 69 % 0 mm
16:17 -12.5 °C -15.4 °C 33809.2 hPa ENE 7.7 km/h 31.1 km/h 70 % 0 mm
16:22 -12.6 °C -15.3 °C 33809.2 hPa NNE 15.6 km/h 31.1 km/h 71 % 0 mm
16:27 -12.6 °C -15.3 °C 33809.2 hPa NE 12.9 km/h 31.1 km/h 71 % 0 mm
16:32 -12.6 °C -15.4 °C 33809.2 hPa NNE 15.6 km/h 25.9 km/h 71 % 0 mm
16:37 -12.6 °C -15.5 °C 33809.2 hPa ENE 7.7 km/h 25.9 km/h 70 % 0 mm
16:42 -12.7 °C -15.4 °C 33809.2 hPa NNE 10.3 km/h 28.5 km/h 71 % 0 mm
16:47 -12.7 °C -15.4 °C 33809.2 hPa ENE 2.6 km/h 28.5 km/h 71 % 0 mm
16:57 -12.7 °C -15.6 °C 33809.2 hPa ENE 2.6 km/h 31.1 km/h 70 % 0 mm
17:02 -12.8 °C -15.6 °C 33809.2 hPa East 18.2 km/h 31.1 km/h 71 % 0 mm
17:12 -12.9 °C -15.8 °C 33822.8 hPa NE 5.1 km/h 28.5 km/h 70 % 0 mm
17:17 -12.9 °C -15.8 °C 33822.8 hPa ENE 5.1 km/h 28.5 km/h 70 % 0 mm
17:22 -12.9 °C -15.7 °C 33832.9 hPa NNW 7.7 km/h 28.5 km/h 71 % 0 mm
17:27 -13 °C -15.7 °C 33832.9 hPa ENE 7.7 km/h 28.5 km/h 72 % 0 mm
17:32 -13 °C -15.7 °C 33832.9 hPa NNE 12.9 km/h 18.2 km/h 72 % 0 mm
17:37 -13.1 °C -15.7 °C 33832.9 hPa NE 18.2 km/h 18.2 km/h 73 % 0 mm
17:42 -13.1 °C -15.7 °C 33843.1 hPa East 2.6 km/h 15.6 km/h 73 % 0 mm
17:47 -13.2 °C -15.7 °C 33843.1 hPa NE 15.6 km/h 25.9 km/h 74 % 0 mm
17:57 -13.3 °C -15.8 °C 33843.1 hPa SE 5.1 km/h 25.9 km/h 73 % 0 mm
18:02 -13.3 °C -15.8 °C 33843.1 hPa ENE 2.6 km/h 23.3 km/h 73 % 0 mm
18:17 -13.4 °C -15.8 °C 33843.1 hPa North 20.8 km/h 31.1 km/h 75 % 0 mm
18:22 -13.4 °C -15.8 °C 33843.1 hPa ENE 5.1 km/h 25.9 km/h 74 % 0 mm
18:27 -13.5 °C -16 °C 33856.6 hPa ESE 20.8 km/h 25.9 km/h 73 % 0 mm
18:32 -13.5 °C -16 °C 33856.6 hPa North 15.6 km/h 33.6 km/h 73 % 0 mm
18:37 -13.5 °C -16 °C 33856.6 hPa NE 7.7 km/h 33.6 km/h 73 % 0 mm
18:42 -13.6 °C -15.9 °C 33856.6 hPa East 5.1 km/h 33.6 km/h 74 % 0 mm
18:47 -13.7 °C -15.9 °C 33856.6 hPa NNE 5.1 km/h 33.6 km/h 75 % 0 mm
18:57 -13.8 °C -16.1 °C 33866.8 hPa NE 5.1 km/h 23.3 km/h 75 % 0 mm
19:02 -13.8 °C -16 °C 33866.8 hPa NE 5.1 km/h 23.3 km/h 76 % 0 mm
19:07 -13.9 °C -16.1 °C 33866.8 hPa NE 5.1 km/h 23.3 km/h 76 % 0 mm
19:17 -14 °C -16.1 °C 33866.8 hPa East 2.6 km/h 25.9 km/h 77 % 0 mm
19:22 -14 °C -16.2 °C 33866.8 hPa Calm   23.3 km/h 76 % 0 mm
19:27 -14 °C -16.2 °C 33866.8 hPa Calm   23.3 km/h 76 % 0 mm
19:32 -14.1 °C -16.2 °C 33880.3 hPa East 7.7 km/h 20.8 km/h 76 % 0 mm
19:37 -14.1 °C -16.3 °C 33880.3 hPa SSE 5.1 km/h 31.1 km/h 76 % 0 mm
19:42 -14.2 °C -16.2 °C 33880.3 hPa ENE 5.1 km/h 31.1 km/h 77 % 0 mm
19:47 -14.2 °C -16.3 °C 33880.3 hPa NNE 7.7 km/h 31.1 km/h 77 % 0 mm
19:52 -14.3 °C -16.3 °C 33880.3 hPa SE 2.6 km/h 23.3 km/h 77 % 0 mm
19:57 -14.3 °C -16.4 °C 33880.3 hPa East 5.1 km/h 25.9 km/h 77 % 0 mm
20:02 -14.3 °C -16.3 °C 33880.3 hPa NE 15.6 km/h 28.5 km/h 78 % 0 mm
20:07 -14.4 °C -16.3 °C 33880.3 hPa ENE 10.3 km/h 28.5 km/h 78 % 0 mm
20:12 -14.4 °C -16.3 °C 33880.3 hPa NNE 7.7 km/h 28.5 km/h 78 % 0 mm
20:17 -14.4 °C -16.3 °C 33880.3 hPa ESE 5.1 km/h 25.9 km/h 78 % 0 mm
20:22 -14.4 °C -16.4 °C 33880.3 hPa NE 20.8 km/h 25.9 km/h 77 % 0 mm
20:32 -14.5 °C -16.4 °C 33880.3 hPa ENE 18.2 km/h 23.3 km/h 78 % 0 mm
20:37 -14.5 °C -16.4 °C 33880.3 hPa East 5.1 km/h 23.3 km/h 78 % 0 mm
20:42 -14.6 °C -16.4 °C 33880.3 hPa ENE 5.1 km/h 33.6 km/h 79 % 0 mm
20:47 -14.6 °C -16.5 °C 33880.3 hPa East 5.1 km/h 33.6 km/h 79 % 0 mm
20:52 -14.6 °C -16.6 °C 33880.3 hPa ENE 18.2 km/h 33.6 km/h 78 % 0 mm
20:57 -14.7 °C -16.6 °C 33880.3 hPa NNE 5.1 km/h 31.1 km/h 79 % 0 mm
21:02 -14.7 °C -16.6 °C 33880.3 hPa ENE 5.1 km/h 31.1 km/h 79 % 0 mm
21:12 -14.8 °C -16.7 °C 33890.5 hPa East 2.6 km/h 31.1 km/h 78 % 0 mm
21:17 -14.7 °C -16.7 °C 33890.5 hPa ENE 5.1 km/h 20.8 km/h 78 % 0 mm
21:22 -14.7 °C -16.6 °C 33890.5 hPa SSE 10.3 km/h 28.5 km/h 78 % 0 mm
21:27 -14.7 °C -16.6 °C 33890.5 hPa NE 7.7 km/h 28.5 km/h 78 % 0 mm
21:32 -14.8 °C -16.7 °C 33890.5 hPa East 5.1 km/h 28.5 km/h 78 % 0 mm
21:37 -14.8 °C -16.7 °C 33890.5 hPa Calm   28.5 km/h 79 % 0 mm
21:42 -14.9 °C -16.7 °C 33900.6 hPa ENE 2.6 km/h 20.8 km/h 79 % 0 mm
21:47 -14.8 °C -16.8 °C 33900.6 hPa ENE 15.6 km/h 25.9 km/h 78 % 0 mm
21:52 -14.8 °C -16.8 °C 33900.6 hPa NNE 7.7 km/h 25.9 km/h 78 % 0 mm
21:57 -14.9 °C -16.7 °C 33900.6 hPa NE 15.6 km/h 25.9 km/h 79 % 0 mm
22:02 -14.9 °C -16.8 °C 33900.6 hPa ENE 2.6 km/h 28.5 km/h 78 % 0 mm
22:07 -14.9 °C -16.8 °C 33900.6 hPa NE 7.7 km/h 28.5 km/h 79 % 0 mm
22:12 -14.9 °C -16.8 °C 33900.6 hPa NE 12.9 km/h 28.5 km/h 79 % 0 mm
22:17 -14.9 °C -16.8 °C 33900.6 hPa ENE 7.7 km/h 28.5 km/h 79 % 0 mm
22:27 -15 °C -16.8 °C 33914.2 hPa ENE 10.3 km/h 28.5 km/h 79 % 0 mm
22:32 -15.1 °C -16.9 °C 33914.2 hPa ENE 5.1 km/h 28.5 km/h 79 % 0 mm
22:37 -15 °C -16.9 °C 33914.2 hPa NE 10.3 km/h 23.3 km/h 78 % 0 mm
22:42 -15 °C -16.8 °C 33914.2 hPa NE 12.9 km/h 23.3 km/h 79 % 0 mm
22:52 -15.1 °C -16.9 °C 33924.3 hPa NNE 18.2 km/h 18.2 km/h 79 % 0 mm
22:57 -15.1 °C -16.9 °C 33914.2 hPa NE 2.6 km/h 18.2 km/h 79 % 0 mm
23:02 -15.1 °C -16.9 °C 33914.2 hPa Calm   18.2 km/h 79 % 0 mm
23:12 -15.4 °C -17.1 °C 33914.2 hPa North 2.6 km/h 18.2 km/h 80 % 0 mm
23:17 -15.4 °C -17.1 °C 33914.2 hPa East 5.1 km/h 18.2 km/h 81 % 0 mm
23:22 -15.4 °C -17.1 °C 33914.2 hPa ENE 7.7 km/h 18.2 km/h 81 % 0 mm
23:27 -15.5 °C -17.2 °C 33914.2 hPa NE 20.8 km/h 23.3 km/h 81 % 0 mm
23:32 -15.5 °C -17.2 °C 33914.2 hPa NE 18.2 km/h 23.3 km/h 81 % 0 mm
23:37 -15.6 °C -17.3 °C 33914.2 hPa ENE 5.1 km/h 23.3 km/h 81 % 0 mm
23:42 -15.7 °C -17.2 °C 33924.3 hPa ESE 5.1 km/h 31.1 km/h 82 % 0 mm
23:47 -15.7 °C -17.3 °C 33924.3 hPa NE 10.3 km/h 31.1 km/h 82 % 0 mm
23:52 -15.8 °C -17.3 °C 33924.3 hPa South 7.7 km/h 31.1 km/h 83 % 0 mm
23:57 -15.8 °C -17.3 °C 33924.3 hPa ENE 12.9 km/h 28.5 km/h 83 % 0 mm
Meteo18
Compliments of Weather Underground - 4 mb

Script developed by  Jim McMurry - jmcmurry@mwt.net Adapted for the template by  Wim van der Kuil - Leuven-Template.eu

You find our weather info also at:

European Weather Network

Weather Underground

Equipment we use:

Weather-station
Davis Vue

Weather-program
Meteobridge

Weather-server
Raspberry PI 2 B+

Provider
1 and 1

Davis Vue

Meteobridge

Raspberry PI 2 B+

1 and 1